Weather in Tablas

Philippines     12°20′36″N   122°01′09″E
temp.,
°C
wind,
m/s
gust,
m/s
humid.,
%
clouds,
%
prec.,
mm/h
press.,
hPa
HPBL,
m
26 july, mon
mon2623:00+28wsw91382100 0.0 10091104
02:00+28wsw91583100 0.0 10061153
05:00+28wsw91584100 0.0 10061156
08:00+28wsw91483100 0.2 10071310
11:00+29wsw91479100 0.3 10061383
14:00+29wsw101677100 0.5 10051472
17:00+28wsw91479100 0.1 10041350
20:00+28wsw81377100 0.4 10061118
27 july, tue
tue2723:00+28sw8138099 0.1 10071213
02:00+28sw91382100 0.4 10051117
05:00+28sw91382100 0.6 10051101
08:00+29sw91480100 1.0 10061312
11:00+29sw9147944 0.4 10061285
14:00+29wsw10157925 1.4 10041290
17:00+28sw915805 0.4 10041367
20:00+28sw814807 0.9 10061316
28 july, wed
wed2823:00+27sw9128257 1.0 10071011
02:00+28sw9148067 1.7 10061164
05:00+28sw81382100 0.6 10061116
08:00+28sw91379100 1.1 10071255
11:00+28sw91480100 0.7 10071271
14:00+28sw9147966 1.6 10061324
17:00+28sw9148176 0.9 10061241
20:00+28sw81180100 1.0 1008998
29 july, thu
thu2923:00+28sw81180100 0.2 1008895
02:00+28sw81180100 0.3 10061051
05:00+28sw81180100 0.3 10071045
08:00+28sw71181100 0.3 10081095
11:00+29sw81178100 0.3 10081100
14:00+29sw81174100 0.8 10071191
17:00+28sw71076100 0.1 1007900
20:00+28sw71078100 0.3 1009867
30 july, fri
fri3023:00+28sw7978100 0.0 1009789
02:00+28sw7979100 0.0 1007846
05:00+28sw6980100 0.1 1007772
08:00+28sw6977100 0.1 10081010
11:00+29sw8117348 0.0 10081143
14:00+29sw81175100 0.0 10071129
17:00+28sw7980100 0.1 1007982
20:00+28wsw6982100 0.3 1009835